This is the latest recevied weather packets stored in our database for station/object WZ8H. If no packets are shown the sender has not sent any weather packets the latest 10 day(s).
| Time | Temp. | Humidity | Pressure | Rain* | Wind** | Luminosity | Snow |
|---|---|---|---|---|---|---|---|
| 1777857090 | 12.22° C | 70% | 1010.7 hPa | 0 mm | - | 0 W/m² | - |
| 1777856781 | 12.22° C | 70% | 1010.8 hPa | 0 mm | - | 0 W/m² | - |
| 1777856453 | 12.22° C | 70% | 1010.9 hPa | 0 mm | - | 0 W/m² | - |
| 1777856126 | 12.22° C | 70% | 1010.9 hPa | 0 mm | - | 0 W/m² | - |
| 1777855824 | 12.22° C | 70% | 1011 hPa | 0 mm | - | 0 W/m² | - |
| 1777855500 | 12.22° C | 71% | 1010.8 hPa | 0 mm | - | 0 W/m² | - |
| 1777855168 | 12.22° C | 71% | 1010.8 hPa | 0 mm | - | 0 W/m² | - |
| 1777854869 | 12.22° C | 71% | 1010.9 hPa | 0 mm | - | 0 W/m² | - |
| 1777854560 | 12.22° C | 70% | 1010.8 hPa | 0 mm | - | 0 W/m² | - |
| 1777854257 | 12.78° C | 70% | 1010.8 hPa | 0 mm | - | 5 W/m² | - |
| 1777853931 | 12.78° C | 70% | 1010.8 hPa | 0 mm | - | 7 W/m² | - |
| 1777853629 | 13.33° C | 70% | 1010.7 hPa | 0 mm | - | 11 W/m² | - |
| 1777853300 | 13.33° C | 69% | 1010.7 hPa | 0 mm | - | 12 W/m² | - |
| 1777852998 | 13.33° C | 68% | 1010.6 hPa | 0 mm | - | 16 W/m² | - |
| 1777852679 | 13.89° C | 66% | 1010.5 hPa | 0 mm | - | 19 W/m² | - |
| 1777852344 | 13.89° C | 64% | 1010.4 hPa | 0 mm | - | 23 W/m² | - |
| 1777852044 | 14.44° C | 61% | 1010.4 hPa | 0 mm | - | 30 W/m² | - |
| 1777851744 | 15° C | 52% | 1010.3 hPa | 0 mm | - | 28 W/m² | - |
| 1777851443 | 15° C | 51% | 1010.3 hPa | 0 mm | - | 30 W/m² | - |
| 1777851144 | 15.56° C | 50% | 1010.2 hPa | 0 mm | - | 56 W/m² | - |
| 1777850850 | 15.56° C | 51% | 1010.2 hPa | 0 mm | - | 62 W/m² | - |
| 1777850543 | 15.56° C | 52% | 1010.3 hPa | 0 mm | - | 98 W/m² | - |
| 1777850240 | 15.56° C | 51% | 1010.3 hPa | 0 mm | - | 132 W/m² | - |
| 1777849915 | 15.56° C | 51% | 1010.3 hPa | 0 mm | - | 95 W/m² | - |
| 1777849611 | 15.56° C | 51% | 1010.3 hPa | 0 mm | - | 149 W/m² | - |
* Rain latest hour (hover to see other rain measurements)
** Current wind speed in m/s (hover to see current wind gust speed)